La Corsa di Miguel
Classifica best Uomini al 2018

Roma - Farnesina | 10,000 Km



Classifica best Donne al 2018 | La gara negli anni

Classifica composta da 620 atleti.

N. Pos.
in %
Tot.
Ediz.
Foto Runner Cat. Tempo min/
Km
Edizione
1 0% 2 Argentieri Giovanni SM 00:32:52 3:17 2017
2 0% 1 Moccia Andrea SM50 00:33:42 3:22 2012
3 0% 2 Donati Simone SM35 00:33:45 3:22 2018
4 1% 1 Simongini Carlo SM50 00:34:19 3:25 2015
5 1% 1 Parrino Mattia JM 00:34:35 3:27 2018
6 1% 1 Indelicato Marco SM45 00:34:47 3:28 2018
7 1% 5 Geraldini Piergianni SM35 00:34:47 3:28 2017
8 1% 1 Tambone Augusto SM40 00:35:01 3:30 2002
9 1% 4 Murolo Marco SM40 00:35:05 3:30 2017
10 2% 2 Lutri Stefano SM40 00:35:05 3:30 2002
11 2% 5 Arrigoni Manuel SM40 00:35:15 3:31 2015
12 2% 2 Tramontano Gennaro SM35 00:35:24 3:32 2015
13 2% 4 Brilli Fabrizio SM35 00:35:36 3:33 2015
14 2% 5 Mazzoli Angelo SM40 00:35:36 3:33 2012
15 2% 2 Denguir Mourad SM45 00:35:37 3:33 2012
16 3% 3 Cardellini Nicola SM35 00:35:40 3:34 2015
17 3% 4 Del Negro Roberto SM40 00:35:42 3:34 2017
18 3% 3 Ferrante Francesco SM35 00:36:00 3:36 2018
19 3% 1 Mittoni Alberto SM45 00:36:01 3:36 2017
20 3% 1 Comina Fabio SM35 00:36:08 3:36 2018
21 3% 2 Dina Sergio SM55 00:36:24 3:38 2017
22 4% 1 Cavassini Enzo SM45 00:36:26 3:38 2002
23 4% 1 Capannolo Valerio SM 00:36:29 3:38 2012
24 4% 5 Nigri Umberto SM45 00:36:46 3:40 2017
25 4% 2 Cocchia Domenico Alessandro SM40 00:36:49 3:40 2018
26 4% 2 Caponnetto Dario SM45 00:36:51 3:41 2015
27 4% 1 Oronzini Alessandro SM 00:36:56 3:41 2002
28 5% 5 Farina Ignazio Stefano SM50 00:37:04 3:42 2015
29 5% 2 Zirilli Edoardo SM35 00:37:05 3:42 2015
30 5% 1 Perna Dario SM45 00:37:10 3:43 2015
31 5% 5 Giannini Daniele SM50 00:37:12 3:43 2018
32 5% 3 Cocciolo Andrea SM40 00:37:15 3:43 2015
33 5% 3 Di Liberto Lorenzo SM45 00:37:21 3:44 2015
34 5% 1 Dos Santos Galvao Mario Rogerio SM 00:37:28 3:44 2012
35 6% 2 De Pasquali Roberto SM40 00:37:35 3:45 2018
36 6% 2 Grandin Diego SM55 00:37:46 3:46 2002
37 6% 3 Cina Stefano SM40 00:37:51 3:47 2012
38 6% 2 Marsili Fausto SM50 00:37:56 3:47 2012
39 6% 2 Catalano Claudio SM50 00:38:01 3:48 2014
40 6% 1 D'amico - 72 Roberto SM45 00:38:01 3:48 2017
41 7% 3 Pierantozzi Fabio SM40 00:38:19 3:49 2015
42 7% 1 Polinari Simone SM40 00:38:21 3:50 2018
43 7% 1 Ronci Aldo SM 00:38:22 3:50 2002
44 7% 2 Taddei Giancarlo SM45 00:38:23 3:50 2002
45 7% 3 Del Borrello Vincenzo SM45 00:38:26 3:50 2015
46 7% 1 Salomone Paolo SM40 00:38:27 3:50 2002
47 8% 1 Viani Roberto SM35 00:38:28 3:50 2018
48 8% 6 Cacchioni Antonio SM35 00:38:31 3:51 2002
49 8% 4 Formai Riccardo SM45 00:38:32 3:51 2018
50 8% 4 Pacciani Stefano SM45 00:38:41 3:52 2015
51 8% 1 Gigli Cristian SM40 00:38:41 3:52 2014
52 8% 1 Scoccia Giuseppe SM55 00:38:41 3:52 2018
53 9% 5 Salera Marco SM45 00:38:45 3:52 2015
54 9% 1 Stoia Michele SM 00:38:46 3:52 2002
55 9% 1 Piccardi Paolo SM35 00:38:47 3:52 2017
56 9% 5 Leoncini Claudio SM45 00:38:47 3:52 2015
57 9% 2 Latini Roberto SM40 00:38:49 3:52 2012
58 9% 1 Cittadini Fabio SM40 00:38:52 3:53 2018
59 10% 3 Litta Francesco SM40 00:38:54 3:53 2017
60 10% 4 Cacciani Andrea SM40 00:39:00 3:54 2015
61 10% 2 Zingariello Gerardo SM45 00:39:00 3:54 2015
62 10% 4 De Iulis Stefano SM50 00:39:02 3:54 2018
63 10% 1 Polverino Vittorio SM35 00:39:10 3:55 2015
64 10% 2 Mascaro Antonio SM50 00:39:30 3:57 2017
65 10% 1 Alessandrini Marco SM40 00:39:35 3:57 2002
66 11% 1 Manzi Fabio SM40 00:39:37 3:57 2012
67 11% 3 Localzo Marco SM50 00:39:38 3:57 2018
68 11% 3 De Palo Nicola SM35 00:39:40 3:58 2015
69 11% 1 Puccio Luigi SM40 00:39:40 3:58 2015
70 11% 4 Huza Marius Razvan SM35 00:39:45 3:58 2018
71 11% 3 Mensi Daniele SM35 00:39:45 3:58 2012
72 12% 2 Tortoreto Luca SM40 00:39:46 3:58 2012
73 12% 1 Mansi Marco SM50 00:39:47 3:58 2012
74 12% 1 Scarinci Tullio SM45 00:39:50 3:59 2014
75 12% 3 Trinca Riccardo SM35 00:39:50 3:59 2015
76 12% 1 Gessi Carlo SM45 00:39:55 3:59 2012
77 12% 3 Vella Victor SM60 00:39:56 3:59 2014
78 13% 1 Silvioli Daniele SM50 00:39:58 3:59 2014
79 13% 1 Battista Gianluca SM45 00:40:02 4:00 2017
80 13% 3 Giovanale Luigi SM50 00:40:03 4:00 2015
81 13% 5 Fiore Paolo SM50 00:40:07 4:00 2015
82 13% 2 Biscotti Alessio SM35 00:40:18 4:01 2012
83 13% 3 Mazzei Marco SM 00:40:23 4:02 2014
84 14% 1 Marini Fabrizio SM40 00:40:25 4:02 2012
85 14% 6 Castellana Leone SM60 00:40:30 4:03 2015
86 14% 1 Casinelli Antonio SM45 00:40:32 4:03 2012
87 14% 1 Martolini Alberto SM35 00:40:34 4:03 2012
88 14% 1 Musto Angelo Raffaele SM35 00:40:35 4:03 2002
89 14% 2 Scultz Gualtiero SM55 00:40:37 4:03 2017
90 15% 3 Renzulli Raffaele SM40 00:40:37 4:03 2018
91 15% 3 Ferri Lorenzo SM45 00:40:37 4:03 2017
92 15% 1 Pergola Rocco SM40 00:40:38 4:03 2018
93 15% 3 Arigoni Alessandro SM40 00:40:40 4:04 2012
94 15% 3 Del Gaudio Ennio SM50 00:40:42 4:04 2012
95 15% 2 Zanzot Paolo SM40 00:40:42 4:04 2012
96 15% 1 Gargani Davide Leopoldo SM50 00:40:45 4:04 2012
97 16% 2 Garzia Giorgio SM40 00:40:45 4:04 2015
98 16% 3 Vetrano Alessio SM45 00:40:45 4:04 2015
99 16% 1 Abatini Silvano SM40 00:40:45 4:04 2002
100 16% 1 Fusco Elio SM40 00:40:46 4:04 2017
101 16% 1 Pelo Iacopo SM35 00:40:47 4:04 2018
102 16% 1 Biscotti Alessandro SM35 00:40:51 4:05 2012
103 17% 1 Anguillesi Mauro SM45 00:40:53 4:05 2002
104 17% 1 Baldelli Ermanno SM40 00:40:54 4:05 2002
105 17% 1 Filippi Bruno SM45 00:40:58 4:05 2002
106 17% 4 Toppano Andrea SM50 00:40:59 4:05 2018
107 17% 1 Giannuzzi Renato SM35 00:41:01 4:06 2012
108 17% 2 Pascali Maurizio SM40 00:41:04 4:06 2012
109 18% 2 Jorio Valerio SM50 00:41:09 4:06 2018
110 18% 3 D'Attorre Alfredo SM35 00:41:10 4:07 2012
111 18% 1 Fedeli Roberto SM45 00:41:11 4:07 2002
112 18% 1 Di Carlo Amedeo SM35 00:41:12 4:07 2012
113 18% 3 Faranda Paolo SM40 00:41:16 4:07 2015
114 18% 2 Blini Francesco SM40 00:41:17 4:07 2012
115 19% 1 Russo Salvatore SM55 00:41:24 4:08 2018
116 19% 4 Cerioni Carlo SM45 00:41:31 4:09 2018
117 19% 2 Ungaro Andrea Patrick SM45 00:41:31 4:09 2014
118 19% 2 Saltari Lorenzo SM35 00:41:34 4:09 2012
119 19% 2 Giambra Sandro SM50 00:41:34 4:09 2014
120 19% 2 Verzaschi Marco SM55 00:41:40 4:10 2014
121 20% 2 Caldo Giuliano SM45 00:41:43 4:10 2015
122 20% 5 Cignitti Marco Fabio SM45 00:41:46 4:10 2015
123 20% 5 Castellano Ferruccio SM50 00:41:46 4:10 2017
124 20% 1 Verdesca Massimo SM50 00:41:47 4:10 2012
125 20% 1 Moriconi Daniele SM 00:41:49 4:10 2012
126 20% 2 Dentico Emiliano SM45 00:41:54 4:11 2018
127 20% 1 Simeone Giulio SM40 00:41:55 4:11 2018
128 21% 3 Picardi Angelo SM50 00:41:57 4:11 2015
129 21% 2 Alessandroni Andrea SM 00:41:58 4:11 2014
130 21% 1 Tanzillo Raffaele SM40 00:41:58 4:11 2017
131 21% 2 Di Massimo Antonio SM50 00:42:01 4:12 2017
132 21% 1 Iadanza Pasquale SM35 00:42:02 4:12 2018
133 21% 4 Galasso Paolo SM55 00:42:03 4:12 2017
134 22% 2 Russo Raffaele SM40 00:42:05 4:12 2017
135 22% 1 Arolchi Claudio SM50 00:42:06 4:12 2002
136 22% 1 Salvati Gianfranco SM50 00:42:06 4:12 2015
137 22% 3 De Santis Alessandro Vittorio SM45 00:42:07 4:12 2015
138 22% 1 Salvatore Marco SM40 00:42:08 4:12 2018
139 22% 1 Testa Luigi SM45 00:42:09 4:12 2012
140 23% 2 Polverini Andrea SM45 00:42:11 4:13 2018
141 23% 3 Adornetto Vincenzo SM45 00:42:11 4:13 2015
142 23% 2 Priggione Matte' Luca SM40 00:42:12 4:13 2018
143 23% 1 Antonelli Fiero SM40 00:42:13 4:13 2002
144 23% 2 Benvenuto Giuseppe SM45 00:42:15 4:13 2012
145 23% 2 Di Vecchio Daniele SM45 00:42:15 4:13 2014
146 24% 5 Malandrino Enrico SM 00:42:18 4:13 2015
147 24% 1 Vennarucci Roberto SM 00:42:21 4:14 2014
148 24% 1 Tumino Marcello SM50 00:42:23 4:14 2018
149 24% 1 Concezzi Fabio SM50 00:42:32 4:15 2018
150 24% 6 Gianni Vincenzo SM50 00:42:34 4:15 2002
151 24% 2 Barocchi Paolo SM50 00:42:37 4:15 2017
152 25% 4 Ferrante Giancarlo SM55 00:42:39 4:15 2015
153 25% 1 Cellurale Carlo SM45 00:42:39 4:15 2002
154 25% 1 Toccaceli Federico SM 00:42:41 4:16 2012
155 25% 1 Mancanelli Andrea SM45 00:42:41 4:16 2012
156 25% 1 Cardellini Claudio SM60 00:42:43 4:16 2014
157 25% 1 Marchese Giovanni SM55 00:42:45 4:16 2018
158 25% 3 D'ambrosio Mario SM50 00:42:48 4:16 2012
159 26% 1 D'amico Gianluca SM40 00:42:48 4:16 2012
160 26% 5 Monti Massimiliano SM50 00:42:50 4:17 2012
161 26% 3 Maurizi Massimo SM50 00:42:51 4:17 2012
162 26% 2 D'Alonzo Metallo Giulio SM35 00:42:54 4:17 2017
163 26% 1 Nardoni Andrea SM45 00:42:55 4:17 2017
164 26% 5 Carrozza Francesco SM45 00:42:55 4:17 2018
165 27% 1 Mancuso Prizzitano Giacomo SM40 00:42:55 4:17 2012
166 27% 4 Spaziani Raniero SM 00:42:57 4:17 2012
167 27% 4 Scarlato Michele SM55 00:42:57 4:17 2017
168 27% 3 Tagliacozzo Sergio SM45 00:43:00 4:18 2014
169 27% 4 Pediconi Francesco Maria SM50 00:43:00 4:18 2002
170 27% 2 Bartocci Silvio SM40 00:43:03 4:18 2014
171 28% 1 Masin Osvaldo SM50 00:43:03 4:18 2002
172 28% 1 Costa Carbonari Stefano SM40 00:43:08 4:18 2012
173 28% 2 Giammari Giorgio SM45 00:43:11 4:19 2012
174 28% 1 Filiputti Claudio SM45 00:43:17 4:19 2002
175 28% 3 Zampetti Maurizio SM45 00:43:22 4:20 2017
176 28% 1 Diotallevi Marco SM45 00:43:22 4:20 2017
177 29% 1 Di Felice Riccardo SM35 00:43:24 4:20 2014
178 29% 1 Longo Pietro Maria SM55 00:43:26 4:20 2012
179 29% 5 Nardecchia Claudio SM65 00:43:27 4:20 2017
180 29% 1 Corcos Andrea SM55 00:43:27 4:20 2015
181 29% 1 Colasanti Stefano SM45 00:43:30 4:21 2018
182 29% 5 Lai Adriano SM55 00:43:32 4:21 2012
183 30% 1 Orsini Dianeo SM45 00:43:34 4:21 2012
184 30% 1 Rotondo Gian Marco SM35 00:43:37 4:21 2012
185 30% 2 Cannizzaro Marco SM55 00:43:37 4:21 2012
186 30% 3 Romano Fabio SM45 00:43:38 4:21 2018
187 30% 2 Onorato Gino SM50 00:43:38 4:21 2018
188 30% 2 Mastropietro Massimo SM50 00:43:39 4:21 2014
189 30% 5 Abate Fabrizio SM45 00:43:40 4:22 2015
190 31% 2 Invernizzi Gianluigi SM45 00:43:42 4:22 2017
191 31% 1 De Cicco Giuseppe SM35 00:43:44 4:22 2002
192 31% 4 Di Crecchio Renato SM50 00:43:45 4:22 2017
193 31% 1 Ghislandi Francesco SM45 00:43:46 4:22 2018
194 31% 2 Scialla Riccardo SM35 00:43:46 4:22 2017
195 31% 1 Moscardelli Alessandro SM40 00:43:46 4:22 2012
196 32% 1 Vincenti Marco SM50 00:43:49 4:22 2014
197 32% 1 Angiolillo Matteo SM 00:43:51 4:23 2014
198 32% 2 Billi Fabrizio SM45 00:43:51 4:23 2014
199 32% 1 Marino Pietro SM 00:43:52 4:23 2012
200 32% 1 Monaco Paolo SM40 00:43:54 4:23 2014
201 32% 2 Polidori Marziano SM45 00:43:56 4:23 2002
202 33% 1 Onofri Alberto JM 00:43:57 4:23 2014
203 33% 1 Laureti Marco SM35 00:43:59 4:23 2017
204 33% 1 Pontini Roberto SM35 00:44:02 4:24 2002
205 33% 1 Bruno Fabio SM45 00:44:09 4:24 2015
206 33% 2 Pasquini Uberto SM60 00:44:10 4:25 2002
207 33% 4 Budoni Carlo SM50 00:44:11 4:25 2015
208 34% 1 Barone Marco SM35 00:44:12 4:25 2012
209 34% 1 Marano Cristiano Maria SM 00:44:13 4:25 2002
210 34% 1 Fraumene Paolo SM50 00:44:14 4:25 2002
211 34% 1 Gulisano Sebastian SM 00:44:14 4:25 2014
212 34% 1 Simoni Italo E. SM55 00:44:16 4:25 2002
213 34% 2 Lungarini Marco SM45 00:44:18 4:25 2017
214 35% 1 Zini Diego SM45 00:44:18 4:25 2012
215 35% 1 Toscano Andrea Fortunato SM 00:44:20 4:26 2012
216 35% 2 Pizzonia Massimo SM50 00:44:21 4:26 2015
217 35% 3 Lamedica Giuseppe SM40 00:44:23 4:26 2017
218 35% 2 Peroni Bruno SM35 00:44:27 4:26 2014
219 35% 4 Graziani Italo SM55 00:44:28 4:26 2014
220 35% 1 Mattei Giampaolo SM45 00:44:28 4:26 2012
221 36% 3 Manili Domenico SM45 00:44:31 4:27 2012
222 36% 5 Alimonti Carlo SM55 00:44:34 4:27 2012
223 36% 1 Silvestri Alessandro SM35 00:44:34 4:27 2012
224 36% 3 Salvato Silvio SM35 00:44:37 4:27 2017
225 36% 3 Minnielli Lorenzo Maria SM55 00:44:39 4:27 2015
226 36% 5 Mendolia Mauro Riccardo SM60 00:44:40 4:28 2012
227 37% 1 Ammendola Antonio SM45 00:44:40 4:28 2017
228 37% 2 Papeo Pasquale Antonio SM50 00:44:42 4:28 2018
229 37% 3 Pica Carlo Alberto SM50 00:44:46 4:28 2014
230 37% 1 Pacifici Benedetto SM50 00:44:46 4:28 2017
231 37% 1 Giudici Francesco SM35 00:44:47 4:28 2018
232 37% 2 Di Francesco Roberto SM40 00:44:54 4:29 2015
233 38% 1 Camboni Massimiliano SM45 00:44:55 4:29 2017
234 38% 2 Caputo Antonio SM50 00:44:59 4:29 2017
235 38% 3 Toni Fabrizio SM65 00:45:04 4:30 2012
236 38% 4 Frazzini Enzo SM55 00:45:06 4:30 2014
237 38% 1 Sposato Domenico SM 00:45:06 4:30 2014
238 38% 5 Cappadocia Vincenzo SM70 00:45:07 4:30 2017
239 39% 1 Bussani Omar SM35 00:45:11 4:31 2014
240 39% 2 Rizzo Salvatore Maria SM40 00:45:11 4:31 2015
241 39% 1 Crupi Antonino Loreto SM35 00:45:14 4:31 2012
242 39% 5 Orlandi Giuseppe SM50 00:45:15 4:31 2015
243 39% 1 Amendola Dario SM35 00:45:15 4:31 2012
244 39% 4 Passa Corrado SM40 00:45:19 4:31 2014
245 40% 3 Caiazzi Mauro SM55 00:45:19 4:31 2012
246 40% 2 Giangrazi Christian SM35 00:45:20 4:32 2015
247 40% 4 Biocco Franco SM55 00:45:22 4:32 2018
248 40% 4 Rizzardi Flavio SM45 00:45:23 4:32 2012
249 40% 1 Grottaroli Mauro SM45 00:45:23 4:32 2017
250 40% 1 Mele Fabiano SM40 00:45:23 4:32 2014
251 40% 1 Tekombo Dongmeza Bright Savoir SM 00:45:24 4:32 2014
252 41% 1 Longo Luigi SM55 00:45:26 4:32 2002
253 41% 1 Venerito Arcangelo SM 00:45:28 4:32 2012
254 41% 3 Ponzi Sandro SM60 00:45:29 4:32 2014
255 41% 1 Postiglione Luca SM40 00:45:31 4:33 2014
256 41% 2 Longo Tommaso SM50 00:45:35 4:33 2012
257 41% 1 Calabrese Claudio SM35 00:45:37 4:33 2015
258 42% 3 Gianì Corrado SM45 00:45:38 4:33 2018
259 42% 1 Ciocchetti Massimo SM 00:45:40 4:34 2014
260 42% 2 Trusiani Nicola SM45 00:45:41 4:34 2014
261 42% 2 Giombini Fabio SM55 00:45:42 4:34 2015
262 42% 1 Centurion Aznaran Carlos Alberto SM35 00:45:42 4:34 2015
263 42% 3 Calabresi Andrea SM40 00:45:45 4:34 2014
264 43% 2 Santolini Roberto SM50 00:45:49 4:34 2018
265 43% 1 Cucchi Federico Raoul SM 00:45:49 4:34 2012
266 43% 1 Totonelli Bruno SM40 00:45:53 4:35 2014
267 43% 1 Russo Luca SM50 00:45:53 4:35 2012
268 43% 1 Panelli Marco SM 00:45:57 4:35 2002
269 43% 1 Palmucci Riccardo SM50 00:45:57 4:35 2012
270 44% 1 Segoni Fabio SM50 00:46:04 4:36 2012
271 44% 1 Fogli Arturo SM55 00:46:08 4:36 2002
272 44% 5 Tripodi Enzo Maria SM45 00:46:10 4:37 2015
273 44% 1 Iannicelli Emiliano SM45 00:46:12 4:37 2018
274 44% 2 Costi Andrea SM35 00:46:13 4:37 2015
275 44% 3 Di Maio Antonio SM40 00:46:13 4:37 2015
276 45% 1 Vitulli Flaviano SM35 00:46:13 4:37 2012
277 45% 2 Di Perna Antonio SM55 00:46:13 4:37 2017
278 45% 1 Saturnino Andrea SM40 00:46:14 4:37 2012
279 45% 4 Gambini Marco SM45 00:46:14 4:37 2015
280 45% 1 Morra Ciro SM50 00:46:17 4:37 2015
281 45% 2 Alessandroni Alessandro SM40 00:46:19 4:37 2015
282 45% 2 Ruschioni Ugo SM35 00:46:21 4:38 2017
283 46% 2 Campoli Giampiero SM40 00:46:21 4:38 2015
284 46% 2 Cavalli Umberto SM55 00:46:21 4:38 2017
285 46% 1 Fabi Stefano SM40 00:46:24 4:38 2014
286 46% 4 Pugliese Sergio SM55 00:46:25 4:38 2015
287 46% 3 Pasanisi Alessandro SM35 00:46:26 4:38 2014
288 46% 1 Gubbiotto Gianni SM45 00:46:29 4:38 2014
289 47% 1 Jacoboni Emiliano SM40 00:46:29 4:38 2014
290 47% 2 Cavarra Marco SM45 00:46:30 4:39 2018
291 47% 2 Penso Luca SM40 00:46:30 4:39 2015
292 47% 1 Zanolli Alessandro SM45 00:46:33 4:39 2012
293 47% 3 Traccitto Matteo SM35 00:46:33 4:39 2018
294 47% 1 Pisani Stefano SM50 00:46:35 4:39 2012
295 48% 1 Liccardi Aldo SM45 00:46:37 4:39 2012
296 48% 3 Deidda Mauro SM40 00:46:39 4:39 2017
297 48% 3 Lemasle Pascal SM50 00:46:40 4:40 2017
298 48% 1 Monti Giuseppe SM50 00:46:42 4:40 2012
299 48% 5 Zuppello Valter SM65 00:46:43 4:40 2012
300 48% 4 Viglialoro Giuseppe SM45 00:46:46 4:40 2012
301 49% 2 Marchese Mario SM50 00:46:48 4:40 2015
302 49% 1 Duma Eugenio SM45 00:46:48 4:40 2012
303 49% 1 Silvestri Antonio SM45 00:46:52 4:41 2018
304 49% 1 Di Leo Daniele SM45 00:46:53 4:41 2017
305 49% 1 Sensati Federico SM40 00:46:53 4:41 2017
306 49% 3 Sorrentino Vincenzo SM55 00:46:54 4:41 2015
307 50% 1 Scuttari Mauro SM 00:46:55 4:41 2015
308 50% 1 Cimarelli Massimo SM40 00:46:55 4:41 2017
309 50% 2 Cesareo Gianfranco SM55 00:46:55 4:41 2012
310 50% 1 Bitti Paolo SM40 00:46:56 4:41 2012
311 50% 1 Giorgi Fabio SM40 00:46:58 4:41 2012
312 50% 4 Consiglio Luciano SM50 00:46:58 4:41 2002
313 50% 2 Ianzano Antonio SM35 00:47:00 4:42 2015
314 51% 2 Lobrace Gaetano SM60 00:47:04 4:42 2018
315 51% 1 Pozzi Giorgio PM 00:47:04 4:42 2002
316 51% 4 Corrado Ovidio SM45 00:47:08 4:42 2017
317 51% 1 Gentile Giancarlo SM45 00:47:09 4:42 2012
318 51% 2 Patrizi Lorenzo SM35 00:47:14 4:43 2017
319 51% 3 Toni Federico SM70 00:47:17 4:43 2017
320 52% 1 Renzi Flavio SM35 00:47:19 4:43 2012
321 52% 3 Elviretti Francesco SM55 00:47:20 4:44 2014
322 52% 1 Del Vecchio Giuseppe SM40 00:47:20 4:44 2012
323 52% 1 Nisini Andrea SM 00:47:21 4:44 2012
324 52% 1 Trivini Emanuele SM40 00:47:24 4:44 2014
325 52% 3 Pelonara Gino SM65 00:47:32 4:45 2012
326 53% 1 Grossi Gondi Fabio SM45 00:47:33 4:45 2015
327 53% 1 Pistola Marco SM55 00:47:34 4:45 2015
328 53% 1 Palombini Leopoldo SM45 00:47:34 4:45 2002
329 53% 1 Petrucci Daniele SM40 00:47:35 4:45 2015
330 53% 1 Starnone Marco SM50 00:47:36 4:45 2012
331 53% 1 Carrarini Gianluca SM35 00:47:39 4:45 2012
332 54% 1 Palmieri Stefano SM55 00:47:40 4:46 2017
333 54% 1 Prioreschi Andrea SM40 00:47:42 4:46 2012
334 54% 1 Pavia Saverio SM40 00:47:49 4:46 2012
335 54% 1 Marini Sergio SM40 00:47:51 4:47 2015
336 54% 4 Cerasa Giuseppe SM65 00:47:52 4:47 2017
337 54% 1 Vitello Francesco SM60 00:47:52 4:47 2014
338 55% 1 Orlandi Pio SM35 00:47:55 4:47 2012
339 55% 1 Cenerelli Mauro SM35 00:47:56 4:47 2015
340 55% 1 Cenerelli Alessio SM 00:47:56 4:47 2015
341 55% 1 Lionetti Tony SM40 00:47:59 4:47 2014
342 55% 1 Iannini Francesco SM45 00:47:59 4:47 2018
343 55% 3 Claroni Giulio SM50 00:48:00 4:48 2012
344 55% 2 Porcelli Michele SM50 00:48:02 4:48 2018
345 56% 1 Macchi Giangiacomo SM45 00:48:03 4:48 2012
346 56% 1 Caracci Mario SM 00:48:03 4:48 2015
347 56% 1 Ceccarelli Mauro SM45 00:48:03 4:48 2014
348 56% 2 Scarnati Carlo SM55 00:48:05 4:48 2014
349 56% 1 Cirilli Pietro SM40 00:48:05 4:48 2002
350 56% 3 Cecchini Paolo SM50 00:48:07 4:48 2015
351 57% 2 Battistelli Stefano SM45 00:48:07 4:48 2017
352 57% 1 Zimmermann Augustin SM40 00:48:11 4:49 2014
353 57% 1 Chiarello Vito SM40 00:48:13 4:49 2017
354 57% 1 Nanni Gregorio SM55 00:48:14 4:49 2014
355 57% 1 Coco Angelo SM60 00:48:17 4:49 2012
356 57% 1 Pellegrini Roberto SM 00:48:17 4:49 2012
357 58% 2 Ciervo Michele SM45 00:48:18 4:49 2012
358 58% 2 Sterpa Antonio SM50 00:48:20 4:50 2015
359 58% 1 Gallucci Roberto SM 00:48:26 4:50 2012
360 58% 1 De Cicco Gustavo SM40 00:48:26 4:50 2014
361 58% 1 Canalis Andrea SM50 00:48:26 4:50 2018
362 58% 2 Zicarelli Marco SM45 00:48:30 4:51 2017
363 59% 1 Ranaldi Alessandro SM 00:48:31 4:51 2002
364 59% 4 Sarto Gianluca SM45 00:48:35 4:51 2015
365 59% 1 Quagliarella Daniele SM35 00:48:36 4:51 2012
366 59% 1 Tedesco Pietro SM45 00:48:38 4:51 2014
367 59% 1 Micantoni Fabio SM45 00:48:39 4:51 2012
368 59% 2 Salzano Luciano SM55 00:48:41 4:52 2017
369 60% 1 Angelini David SM45 00:48:43 4:52 2015
370 60% 1 Pravato Roberto SM45 00:48:45 4:52 2014
371 60% 3 Santagada Simone SM40 00:48:45 4:52 2017
372 60% 1 Pavone Andrea SM40 00:48:47 4:52 2015
373 60% 3 Ienni Marco SM35 00:48:49 4:52 2015
374 60% 2 Busetta Antonio SM45 00:48:51 4:53 2014
375 60% 1 Aliotta Didier Giuseppe SM50 00:48:52 4:53 2017
376 61% 1 Ponzetto Simone Paolo SM35 00:48:55 4:53 2012
377 61% 4 Iannucci Vittorio SM60 00:48:56 4:53 2015
378 61% 1 Sessa Francesco SM40 00:48:57 4:53 2017
379 61% 1 Sarrocco Fabrizio SM45 00:48:58 4:53 2015
380 61% 1 Picco Carlo SM55 00:48:59 4:53 2002
381 61% 4 Dell'Abate Romolo SM55 00:48:59 4:53 2015
382 62% 1 Mangano Michele SM35 00:48:59 4:53 2015
383 62% 1 De Sanctis Paolo SM35 00:49:00 4:54 2014
384 62% 2 Battisti Massimo SM70 00:49:02 4:54 2015
385 62% 2 Mattiacci Massimiliano SM40 00:49:04 4:54 2014
386 62% 2 Colapietro Massimiliano SM45 00:49:04 4:54 2018
387 62% 1 Vella Saverio SM45 00:49:05 4:54 2015
388 63% 1 Tuazon Silvano Beduya SM55 00:49:08 4:54 2015
389 63% 1 Russo Bruno SM40 00:49:08 4:54 2015
390 63% 1 Sammarco Stefano SM55 00:49:09 4:54 2018
391 63% 2 Tolli Fabrizio SM45 00:49:09 4:54 2012
392 63% 2 Clementi Emiliano SM40 00:49:12 4:55 2015
393 63% 4 Passa Maurizio SM45 00:49:13 4:55 2017
394 64% 2 Bonassisa Alfonso SM60 00:49:13 4:55 2017
395 64% 1 Dusconi Vincenzo Rodolfo SM50 00:49:14 4:55 2012
396 64% 1 Muscio Nicola SM 00:49:14 4:55 2014
397 64% 3 Verduchi Marco SM45 00:49:20 4:56 2012
398 64% 2 Fiore Filippo SM55 00:49:21 4:56 2017
399 64% 1 Petrini Rossi Luca SM45 00:49:22 4:56 2012
400 65% 1 Salis Piero SM60 00:49:23 4:56 2014
401 65% 2 Aufieri Marco SM45 00:49:25 4:56 2014
402 65% 3 Tundo Mario Donato Luigi SM55 00:49:28 4:56 2012
403 65% 1 Cozzi Luigi SM45 00:49:29 4:56 2017
404 65% 2 Giallongo Emanuele SM55 00:49:34 4:57 2015
405 65% 3 Pretto Carlo SM60 00:49:39 4:57 2012
406 65% 1 Ferraldeschi Alfredo SM45 00:49:40 4:58 2015
407 66% 3 Micheletti Davide SM50 00:49:41 4:58 2014
408 66% 2 Peroni Fabian SM40 00:49:42 4:58 2015
409 66% 1 Marini Roberto SM35 00:49:42 4:58 2018
410 66% 3 Lucheroni Fabio SM50 00:49:42 4:58 2018
411 66% 1 Guglielmi Gabriele SM40 00:49:45 4:58 2014
412 66% 1 Nulli Alessandro SM40 00:49:47 4:58 2018
413 67% 1 Muzzi Alessandro SM 00:49:48 4:58 2015
414 67% 5 Celli Marco SM45 00:49:48 4:58 2012
415 67% 2 Canale Emilio SM55 00:49:50 4:59 2012
416 67% 2 Tozzoli Andrea SM35 00:49:52 4:59 2018
417 67% 1 Miozzi Massimo SM50 00:49:53 4:59 2014
418 67% 3 Fantozzi Angelo SM55 00:49:54 4:59 2012
419 68% 1 Fantini Massimiliano SM45 00:49:54 4:59 2012
420 68% 2 Rognoni Simone SM35 00:49:55 4:59 2017
421 68% 1 Pinducciu Tomaso SM50 00:49:56 4:59 2002
422 68% 1 Parziale Ernesto SM35 00:49:57 4:59 2012
423 68% 5 Lattanzi Andrea SM65 00:49:57 4:59 2012
424 68% 1 Capobianchi Fabio SM 00:49:59 4:59 2014
425 69% 1 Plaitano Marcello SM45 00:50:01 5:00 2012
426 69% 1 Binaghi Stefano SM50 00:50:01 5:00 2015
427 69% 1 Romani Giovanni SM55 00:50:06 5:00 2015
428 69% 2 Florio Carlo SM50 00:50:08 5:00 2014
429 69% 6 Azzone Fabrizio SM45 00:50:15 5:01 2002
430 69% 1 Di Tanna Giovanni SM50 00:50:21 5:02 2017
431 70% 2 Rinaldi Massimiliano SM45 00:50:28 5:02 2017
432 70% 1 Caporale Giorgio SM35 00:50:30 5:03 2012
433 70% 1 Toscano Ilario Antonio SM55 00:50:32 5:03 2012
434 70% 5 Aureli Mauro SM50 00:50:35 5:03 2017
435 70% 1 Rivetti Luigi SM50 00:50:38 5:03 2012
436 70% 1 Manca Romano SM50 00:50:49 5:04 2012
437 70% 3 D'alo' Giancarlo SM55 00:50:51 5:05 2012
438 71% 1 Terrasi Gaspare SM55 00:50:51 5:05 2002
439 71% 4 Napolitano Giuseppe SM65 00:50:55 5:05 2012
440 71% 1 Frattari Marco SM50 00:50:56 5:05 2014
441 71% 4 Leo Stefano SM50 00:50:56 5:05 2014
442 71% 1 Mandolini Simone SM35 00:51:02 5:06 2012
443 71% 1 Ortolani Paolo SM45 00:51:05 5:06 2017
444 72% 4 Zannoli Marco SM45 00:51:05 5:06 2012
445 72% 2 Assisi Pietro Fortunato SM60 00:51:07 5:06 2014
446 72% 1 Di Marzo Fabio SM45 00:51:07 5:06 2017
447 72% 1 Satta Riccardo SM45 00:51:08 5:06 2002
448 72% 1 Fiorito Natale Roberto SM40 00:51:09 5:06 2012
449 72% 3 Fasanella Filippo SM35 00:51:10 5:07 2018
450 73% 1 Ficoneri Bolasco Filippo Maria SM55 00:51:10 5:07 2017
451 73% 2 Nappi Francesco Paolo SM50 00:51:10 5:07 2012
452 73% 1 La Torre Antonio SM 00:51:11 5:07 2012
453 73% 1 Pinto Antonio SM 00:51:12 5:07 2012
454 73% 1 Golino Federico SM35 00:51:13 5:07 2012
455 73% 1 Cipolla Angelo SM50 00:51:15 5:07 2017
456 74% 2 Paolino Giuseppe SM45 00:51:16 5:07 2018
457 74% 3 Romano Giovanni Paolo SM50 00:51:16 5:07 2012
458 74% 2 Marini Gianluca SM40 00:51:18 5:07 2015
459 74% 5 D'Amico Roberto SM60 00:51:19 5:07 2018
460 74% 4 D'amore Vincenzo SM50 00:51:19 5:07 2002
461 74% 1 Cintia Attilio SM35 00:51:21 5:08 2012
462 75% 1 Perrotta Michele SM45 00:51:31 5:09 2014
463 75% 1 Marra Pier Tommaso SM35 00:51:32 5:09 2017
464 75% 1 Ilari Stefano SM55 00:51:35 5:09 2012
465 75% 1 Santinami Giorgio SM45 00:51:35 5:09 2014
466 75% 1 Galli Stefano SM50 00:51:40 5:10 2012
467 75% 3 Felici Franco SM60 00:51:41 5:10 2015
468 75% 1 Mancini Adriano SM40 00:51:41 5:10 2015
469 76% 1 La Commara Enzo SM55 00:51:42 5:10 2017
470 76% 3 Di Filippo Pietro SM50 00:51:44 5:10 2015
471 76% 2 Troccia Alessandro SM45 00:51:46 5:10 2014
472 76% 1 Pittelli Roberto SM40 00:51:48 5:10 2012
473 76% 1 Cerrato Luca SM40 00:51:49 5:10 2012
474 76% 3 Usai Leo SM50 00:51:56 5:11 2014
475 77% 1 Pavia Tommaso SM35 00:51:58 5:11 2012
476 77% 1 Andreoni Alessandro SM40 00:52:01 5:12 2018
477 77% 2 Cappelli Augusto SM50 00:52:02 5:12 2017
478 77% 1 Brannetti Piero SM50 00:52:05 5:12 2017
479 77% 1 Efrati Cesare SM40 00:52:09 5:12 2018
480 77% 1 Lorenzini Claudio SM35 00:52:11 5:13 2002
481 78% 1 Ofrias Giovanni SM40 00:52:16 5:13 2012
482 78% 1 Ammoscato Riccardo SM50 00:52:16 5:13 2014
483 78% 1 Promontorio Carlo SM45 00:52:18 5:13 2012
484 78% 4 Veroli Alessandro SM40 00:52:20 5:14 2017
485 78% 1 Nieves Luis Felipe SM40 00:52:21 5:14 2012
486 78% 1 Giacchi Roberto SM45 00:52:21 5:14 2014
487 79% 2 Contini Claudio SM45 00:52:24 5:14 2014
488 79% 1 Morici Alberto SM55 00:52:26 5:14 2012
489 79% 5 Ricci Paolo SM50 00:52:27 5:14 2015
490 79% 4 Castaldi Giovanni SM65 00:52:31 5:15 2012
491 79% 1 Circhetta Carlo SM50 00:52:32 5:15 2014
492 79% 2 Bissattini Stefano SM60 00:52:38 5:15 2018
493 80% 2 Fiorini Mauro SM55 00:52:40 5:16 2012
494 80% 1 Marinelli Roberto SM50 00:52:43 5:16 2015
495 80% 1 Cerilli Carlo SM40 00:52:50 5:17 2015
496 80% 1 Palazzina Sergio SM50 00:52:59 5:17 2017
497 80% 1 Pistelli Lapo SM50 00:52:59 5:17 2017
498 80% 2 Barrella Giuseppe SM55 00:53:07 5:18 2012
499 80% 1 Montefusco Riccardo SM45 00:53:08 5:18 2015
500 81% 1 Borghese Massimiliano SM50 00:53:17 5:19 2014
501 81% 1 Giachetti Stefano PM 00:53:20 5:20 2018
502 81% 1 Altissimi Fabio SM35 00:53:23 5:20 2014
503 81% 4 Angelini Fabrizio SM60 00:53:25 5:20 2012
504 81% 2 Magnano Francesco SM45 00:53:25 5:20 2012
505 81% 2 Carlotto Giorgio SM60 00:53:26 5:20 2015
506 82% 2 Asquino Michele SM45 00:53:38 5:21 2014
507 82% 2 Scuto Giuseppe SM40 00:53:41 5:22 2018
508 82% 1 Valentini Ercole SM55 00:53:42 5:22 2012
509 82% 2 D'eramo Marco SM45 00:53:46 5:22 2014
510 82% 3 Giachetti Roberto SM50 00:53:46 5:22 2012
511 82% 1 Torano Pasquale SM45 00:53:47 5:22 2014
512 83% 1 Borgia Pier Francesco SM50 00:53:50 5:23 2014
513 83% 1 Lazzari Romano SM65 00:53:51 5:23 2002
514 83% 1 Bearzot Massimiliano SM40 00:53:54 5:23 2014
515 83% 5 Della Valle Andrea SM55 00:53:57 5:23 2012
516 83% 1 Zaghini Giuseppe SM45 00:54:06 5:24 2018
517 83% 1 Porta Andrea SM45 00:54:08 5:24 2012
518 84% 1 Carrese Stefano SM50 00:54:08 5:24 2012
519 84% 2 D'andria Marcello SM45 00:54:13 5:25 2018
520 84% 1 Culini Massimo SM45 00:54:17 5:25 2012
521 84% 2 Potestà Paolo SM45 00:54:36 5:27 2015
522 84% 2 Pazielli Andrea SM65 00:54:37 5:27 2017
523 84% 1 Gaglione Roberto SM50 00:54:40 5:28 2014
524 85% 2 Tomassetti Luca SM45 00:54:40 5:28 2015
525 85% 1 Ferrari Franco SM55 00:54:41 5:28 2014
526 85% 1 Ruvolo Maurizio SM45 00:54:47 5:28 2015
527 85% 1 D'amelio Gianluca SM40 00:54:47 5:28 2012
528 85% 1 Rubeis Luciano SM50 00:54:50 5:29 2015
529 85% 1 Di Giuseppe Roberto SM60 00:54:56 5:29 2012
530 85% 1 Violante Sebastiano SM40 00:54:59 5:29 2018
531 86% 1 Bruschini Renato SM35 00:55:05 5:30 2017
532 86% 1 Cardarelli Mauro SM40 00:55:05 5:30 2012
533 86% 2 Baccante Roberto SM35 00:55:07 5:30 2002
534 86% 1 Di Francesco Antonio SM35 00:55:07 5:30 2014
535 86% 1 Turella Maurizio SM45 00:55:10 5:31 2017
536 86% 1 De Donno Giuseppe SM45 00:55:14 5:31 2015
537 87% 1 Carletti Silvano SM60 00:55:17 5:31 2012
538 87% 1 Benvenuto Leonardo SM50 00:55:27 5:32 2015
539 87% 1 Natali Giuseppe SM45 00:55:29 5:32 2014
540 87% 1 Frate Cristian SM 00:55:30 5:33 2012
541 87% 1 Carrieri Massimo SM45 00:55:40 5:34 2012
542 87% 1 Squillace Greco Ettore SM45 00:55:42 5:34 2012
543 88% 1 D'alo' Giuseppe SM35 00:55:42 5:34 2012
544 88% 1 Baffi Giuseppe SM45 00:55:44 5:34 2017
545 88% 1 Tombolesi Roberto SM45 00:55:45 5:34 2014
546 88% 1 Pacciolla Vincenzo SM50 00:55:47 5:34 2018
547 88% 2 Sangiovanni Vincent. Alberto Luigi SM65 00:55:48 5:34 2012
548 88% 1 Giammusso Gabriele SM 00:56:01 5:36 2015
549 89% 1 Aterno Andrea SM45 00:56:01 5:36 2017
550 89% 1 Palmieri Marco SM50 00:56:01 5:36 2015
551 89% 2 Fedele Paolo SM55 00:56:01 5:36 2012
552 89% 1 Migliaccio Massimo SM45 00:56:23 5:38 2002
553 89% 1 D'angelo Riccardo SM45 00:56:36 5:39 2014
554 89% 2 Bartolini Paolo SM45 00:56:44 5:40 2018
555 90% 1 Alciator Marco SM35 00:56:52 5:41 2012
556 90% 1 Alfano Vincenzo SM60 00:56:53 5:41 2018
557 90% 3 Ottavi Mario SM60 00:57:01 5:42 2012
558 90% 1 Marra Pasquale SM35 00:57:08 5:42 2012
559 90% 2 Neri Marco SM50 00:57:12 5:43 2012
560 90% 1 Duca Massimiliano SM45 00:57:16 5:43 2017
561 90% 1 Betro' Maurizio SM45 00:57:18 5:43 2014
562 91% 1 Chiusolo Roberto SM40 00:57:27 5:44 2017
563 91% 1 Lamicela Giuseppe SM45 00:57:31 5:45 2012
564 91% 1 Presutti Fabio SM35 00:57:35 5:45 2014
565 91% 1 Di Iorio Michele Matteo SM60 00:57:40 5:46 2012
566 91% 1 Meacci Marco SM45 00:57:43 5:46 2014
567 91% 1 Brilli Maurizio SM60 00:57:46 5:46 2014
568 92% 1 Micieli Sebastiano SM35 00:57:49 5:46 2014
569 92% 1 Cacciami Massimo SM50 00:57:53 5:47 2012
570 92% 1 Internullo Mattia SM 00:57:55 5:47 2017
571 92% 1 Macci Daniele SM40 00:57:59 5:47 2015
572 92% 1 Pinori Giovanni SM55 00:57:59 5:47 2017
573 92% 1 Serafini Francesco SM55 00:58:11 5:49 2015
574 93% 1 Caggiati Luca SM45 00:58:13 5:49 2012
575 93% 1 Mauro Gaetano SM40 00:58:14 5:49 2015
576 93% 1 Mini Stefano SM45 00:58:20 5:50 2014
577 93% 1 Cascetti Franco SM65 00:58:25 5:50 2012
578 93% 1 Camilli Bernardino SM60 00:58:44 5:52 2012
579 93% 1 Succu Giuseppe SM80 00:58:49 5:52 2014
580 94% 4 Kamaris Costantino SM60 00:59:22 5:56 2012
581 94% 3 Mariano Angelo SM65 00:59:23 5:56 2018
582 94% 1 Toraldo Stefano SM35 00:59:26 5:56 2012
583 94% 1 Addari Christian SM40 00:59:27 5:56 2014
584 94% 1 Della Torre Mario SM45 00:59:31 5:57 2014
585 94% 1 Speciale Massimiliano SM40 00:59:44 5:58 2017
586 95% 1 Sorrone Massimo SM50 00:59:45 5:58 2012
587 95% 2 Piccioni Roberto SM60 00:59:46 5:58 2012
588 95% 2 Strabbioli Marco SM45 00:59:58 5:59 2014
589 95% 1 Rodriguez Magni Fabrizio SM45 01:00:00 6:00 2018
590 95% 1 De Bonis Andrea SM35 01:00:02 6:00 2012
591 95% 1 Cusmano Therence SM45 01:00:18 6:01 2018
592 95% 1 Marano Pietro SM55 01:00:22 6:02 2002
593 96% 1 Malatesta Luca SM40 01:00:32 6:03 2015
594 96% 1 Dominici Stelvio SM45 01:00:32 6:03 2018
595 96% 1 Meniconi Massimo SM50 01:00:44 6:04 2012
596 96% 1 Nido Domenico SM70 01:01:01 6:06 2012
597 96% 1 Zancolla Andrea SM40 01:01:07 6:06 2017
598 96% 1 Arcudi Claudio SM35 01:01:24 6:08 2014
599 97% 2 Mereu Mauro SM60 01:02:01 6:12 2014
600 97% 1 Terrone Donato SM50 01:02:39 6:15 2014
601 97% 1 Cacciani Pietro SM45 01:03:00 6:18 2012
602 97% 1 Carfagna Sandro SM60 01:03:40 6:22 2014
603 97% 1 Roscetti Sandro SM65 01:03:42 6:22 2012
604 97% 1 Federici Sandro SM60 01:04:11 6:25 2017
605 98% 2 Lamberti Giorgio SM70 01:04:16 6:25 2015
606 98% 1 Caria Massimo SM45 01:04:25 6:26 2017
607 98% 1 Baccante Domenico SM70 01:04:51 6:29 2002
608 98% 1 Nistico' Rosario SM50 01:04:54 6:29 2014
609 98% 1 Sigismondi Roberto SM35 01:05:12 6:31 2014
610 98% 3 Lambelet Aldo SM70 01:05:27 6:32 2015
611 99% 1 Stefanini Mario SM70 01:05:50 6:35 2012
612 99% 2 Di Gregorio Domenico SM65 01:06:59 6:41 2014
613 99% 1 Mercanti Francesco SM45 01:07:00 6:42 2014
614 99% 3 Bernieri Gianfranco SM80 01:08:00 6:48 2015
615 99% 1 Cibrario Michele Nicolo' SM 01:08:25 6:50 2014
616 99% 1 Mieli Settimio SM35 01:09:01 6:54 2012
617 100% 1 Fantucci Fabio SM45 01:11:57 7:11 2015
618 100% 1 De Bonis Leandro SM65 01:12:19 7:13 2014
619 100% 1 Piretti Stefano SM55 01:16:13 7:37 2012
620 100% 1 Briganti Maurizio SM70 01:22:17 8:13 2014

Ver: 3.16 | cecadm